Regional Weather Roundup
Issued by NWS Sterling, VA

Home | Current Version | Previous Version | Text Only | Print | Product List | Glossary Off
Versions: 1 2 3 4 5 6 7 8 9 10 11 12 13 14 15 16 17 18 19 20 21 22 23 24 25 26 27 28 29 30 31 32 33 34 35 36 37 38 39 40 41 42 43 44

000
ASUS41 KLWX 280610
RWRLWX

REGIONAL WEATHER ROUNDUP
NATIONAL WEATHER SERVICE BALTIMORE MD/WASHINGTON DC
200 AM EDT FRI AUG 28 2015

Note: "FAIR" indicates few or no clouds below 12,000 feet
with no significant weather and/or obstructions to visibility.
 TC=TEMPERATURE CELSIUS

 * =Non NWS site. Station does not report precipitation (e.g. rain,
    snow, etc.), thunder, or fog.

DCZ001-MDZ009-015-VAZ040>042-051-053>054-280700-
WASHINGTON METRO

CITY           SKY/WX    TMP DP  RH WIND       PRES   REMARKS
WASHINGTON NAT FAIR      68  60  75 N3        30.17S
DULLES         MOCLDY    62  57  83 CALM      30.17S
ANDREWS AFB    FAIR      62  57  84 CALM      30.16S
FT BELVOIR     MOCLDY    59  58  94 CALM      30.16S
QUANTICO       MOCLDY    64  59  83 NW7       30.17S
COLLEGE PARK*  MOCLDY    61  61 100 CALM      30.16F
LEESBURG*      MOCLDY    61  61 100 CALM      30.19S
MANASSAS*      CLOUDY    61  59  94 CALM      30.17S
GAITHERSBURG*  MOCLDY    57  54  88 CALM      30.21S

$$

MDZ006>007-011-014-280700-
BALTIMORE METRO

CITY           SKY/WX    TMP DP  RH WIND       PRES   REMARKS
BWI AIRPORT    FAIR      61  58  90 CALM      30.16S
MD SCIENCE CTR   N/A     70  57  63 MISG      30.16F
MARTIN STATE   FAIR      63  61  94 CALM      30.17S
ANNAPOLIS      FAIR      69  64  84 NW6       30.15S
FORT MEADE*    MOCLDY    55  55 100 CALM      30.19S

$$

MDZ012-015-019>023-280700-
MARYLAND EASTERN SHORE

CITY           SKY/WX    TMP DP  RH WIND       PRES   REMARKS
OCEAN CITY     FAIR      62  60  93 NW3       30.13F
SALISBURY      FAIR      59  58  96 CALM      30.14S
BAY BRIDGE AP*   N/A     68  55  64 CALM      30.15F
CAMBRIDGE*     FAIR      59  55  88 CALM      30.14S

$$

MDZ017>025-280700-
SOUTHERN MARYLAND

CITY           SKY/WX    TMP DP  RH WIND       PRES   REMARKS
PATUXENT RIVER FAIR      60  58  92 W3        30.15S
ST INIGOES     FAIR      60  58  92 CALM      30.14S
LEONARDTOWN*   FAIR      59  57  94 CALM      30.16F

$$

MDZ003>005-280700-
NORTH CENTRAL MARYLAND

CITY           SKY/WX    TMP DP  RH WIND       PRES   REMARKS
FREDERICK*     FAIR      54  54 100 CALM      30.20S FOG
HAGERSTOWN APT FAIR      61  55  81 E5        30.18S
WESTMINSTER*   FAIR      59  55  88 CALM      30.18S

$$

MDZ501>502-280700-
WESTERN MARYLAND

CITY           SKY/WX    TMP DP  RH WIND       PRES   REMARKS
OAKLAND*       FAIR      54  48  82 SE3       30.23F
CUMBERLAND*    MOCLDY    59  55  88 CALM      30.23S

$$

VAZ025>031-280700-
SHENANDOAH VALLEY

CITY           SKY/WX    TMP DP  RH WIND       PRES   REMARKS
WINCHESTER*    CLOUDY    59  54  82 CALM      30.18F
FRONT ROYAL*   CLOUDY    59  55  88 CALM      30.17F
LURAY*         MOCLDY    59  55  88 CALM      30.19S
NEW MARKET*    CLOUDY    59  56  91 CALM      30.18F
STAUNTON*      FAIR      66  56  72 CALM      30.21S
WAYNESBORO*    FAIR      63  56  78 CALM      30.20F

$$

WVZ021-048>050-054>055-280700-
EASTERN WEST VIRGINIA PANHANDLE

CITY           SKY/WX    TMP DP  RH WIND       PRES   REMARKS
MARTINSBURG    FAIR      56  54  93 SW3       30.18S
PETERSBURG*    MOCLDY    55  54  95 CALM      30.21S

$$

VAZ036>039-050-280700-
CENTRAL FOOTHILLS

CITY           SKY/WX    TMP DP  RH WIND       PRES   REMARKS
CHARLOTTESVILL CLOUDY    65  59  81 CALM      30.17F
CULPEPER*      FAIR      61  58  90 CALM      30.18S
ORANGE*        MOCLDY    64  59  82 CALM      30.18S
GORDONSVILLE*  CLOUDY    64  60  88 CALM      30.16F
WARRENTON*     FAIR      61  60  97 CALM      30.17S

$$

VAZ055>057-280700-
NORTH AND CENTRAL PIEDMONT

CITY           SKY/WX    TMP DP  RH WIND       PRES   REMARKS
FREDERICKSBRG* MOCLDY    64  60  88 CALM      30.15F
STAFFORD*      CLOUDY    59  57  92 CALM      30.20S

$$

NCZ024-NYZ072-PAZ021-071-VAZ022-071-280700-
OTHER REGIONAL OBSERVATIONS

CITY           SKY/WX    TMP DP  RH WIND       PRES   REMARKS
NEW YORK CITY  FAIR      68  53  58 NW5       30.16S
PHILADELPHIA   FAIR      67  54  63 N6        30.15F
PITTSBURGH     FAIR      60  55  83 CALM      30.18F
ROANOKE        FAIR      65  59  81 CALM      30.19S
RICHMOND       FAIR      64  60  87 CALM      30.15S
RALEIGH        MOCLDY    65  60  84 CALM      30.13F

$$

ANZ530>537-280700-
MARINE OBSERVATIONS

STATION/POSITION TIME  TEMP    WIND        PRES
                       AIR SEA DIR/SP/G
                 (UTC) (F)     (DEG/KT/KT) (MB)
THOMAS PT LIGHT  NOT AVBL
BALT KEY BRIDGE  0500   71     340/  4/  5 1021.2R
COVE POINT       0500   73      80/  8/ 11 1021.6R
LEWISETTA        0500   75 79   40/  4/  6 1020.3S
SOLOMONS ISLAND  0500      80                N/A
PINEY POINT      0500           50/  5/  6   N/A

$$




USA.gov is the U.S. government's official web portal to all federal, state and local government web resources and services.